الصفحة الرئيسية
METAR-TAF:

METAR-TAF

مطار :

Monument Pass

Elbert, كولورادو, الولايات المتحدة

دائرة عرض: 39-13-00N, خط طول: 104-38-02W, ارتفاع: 2152 متر

مراقبة الطقس الحالي

تاريخ ووقت الإصدار 32 دقيقة قبل الساعة 15:24UTC
ريح 6 عقدة من الجنوب/الجنوب الشرقي
درجة الحرارة 0°درجة مئوية
الرطوبة 37%
ضغط 1027 hPa
الرؤية: 16.1 كم
سماء صافية

METAR: KMNH 141524Z AUTO 15006KT 10SM CLR 00/M13 A3032 RMK AO2

زمن: 08:56 (15:56 UTC)


TAF: مفقودة

أرصاد الطقس والتوقعات من أكثر من 4000 مطار (تقارير الطقس للمطار METAR والتنبؤ بالطقس بالمطارTAF).

المحطات المتاحة هي النقط الصفراء والحمراء على الخريطة.

حرك المؤشر فوق النقطة لمعرفة اسم المحطة.

ثم انقر لمعرفة أرصاد وتوقعات الطقس.

لتغيير الخارطة: اضغط على الأزرار الخضراء مع رمز الصليب الأسود للتكبير. على الزر الأخضر مع شرطة للتصغير، أو على الأسهم الخضراء للخرائط المجاورة.


METAR-TAF: